Home   Weather   Iquitos   Past weeks

Flag for Peru Past Weather in Iquitos, Loreto, Peru — Yesterday and Last 2 Weeks

Now
77 °F

Scattered showers. Passing clouds.


Feels Like: 78 °F
Forecast: 74 / 88 °F
Wind: 3 mph from South

Location: Iquitos Airport

Current Time: Dec 2, 2016 at 11:49:09 pm

Latest Report: Dec 2, 2016 at 11:00 pm


Visibility: 5 mi

Pressure: 29.89 "Hg

Humidity: 94%

Dew Point: 75 °F

Location of IquitosLocation

Past Weather in Iquitos — Graph

°F

Iquitos Temperature Yesterday

Maximum temperature yesterday: 86 °F (at 1:00 pm)
Minimum temperature yesterday: 73 °F (at 4:00 am)
Average temperature yesterday: 77 °F

High & Low Weather Summary for the Past Weeks

 TemperatureHumidityPressure
High95 °F (Nov 21, 12:00 pm)100% (Nov 29, 3:00 am)29.95 "Hg (Nov 29, 3:00 am)
Low72 °F (Nov 20, 4:00 am)47% (Nov 21, 1:00 pm)29.62 "Hg (Nov 21, 5:00 pm)
Average80 °F83%29.79 "Hg
* Reported Nov 17 10:00 pm — Dec 2 10:00 pm, Iquitos, Weather by CustomWeather, © 2016

Note: Actual official high and low records may vary slightly from our data, if they occured in-between our weather recording intervals... More about our weather records

Advertising

Iquitos Weather History for the Previous 24 Hours

Scroll right to see more
 ConditionsComfort  
Time TempWeatherWind HumidityBarometerVisibility
10:00 pm
Fri, Dec 2
79 °FThunderstorms. Passing clouds.5 mph89%29.89 "Hg4 mi
9:00 pm79 °FPartly cloudy.7 mph89%29.86 "HgN/A
8:00 pm82 °FPassing clouds.6 mph79%29.83 "HgN/A
7:00 pm81 °FPassing clouds.2 mph89%29.80 "HgN/A
6:00 pm84 °FPassing clouds.2 mph84%29.77 "HgN/A
5:00 pm86 °FPassing clouds.3 mph70%29.74 "HgN/A
4:00 pm90 °FScattered clouds.5 mph59%29.74 "HgN/A
3:00 pm91 °FScattered clouds.2 mph59%29.74 "HgN/A
2:00 pm91 °FPartly sunny.2 mph59%29.80 "HgN/A
11:00 am88 °FPartly sunny.6 mph66%29.92 "HgN/A
10:00 am84 °FPartly sunny.5 mph74%29.95 "HgN/A
9:00 am82 °FPartly sunny.5 mph79%29.95 "HgN/A
8:00 am81 °FPassing clouds.3 mph79%29.92 "HgN/A
7:00 am75 °FBroken clouds.No wind94%29.92 "HgN/A
6:00 am72 °FLight fog.No wind100%29.89 "HgN/A
5:00 am73 °FClear.No wind94%29.86 "Hg10 mi
4:00 am73 °FClear.No wind94%29.83 "Hg10 mi
3:00 am73 °FClear.No wind94%29.83 "Hg10 mi
2:00 am73 °FClear.No wind94%29.83 "Hg10 mi
1:00 am73 °FClear.No wind94%29.83 "Hg10 mi
12:00 am73 °FClear.No wind94%29.86 "Hg10 mi
11:00 pm
Thu, Dec 1
73 °FClear.No wind94%29.89 "Hg10 mi
Weather by CustomWeather, © 2016

See weather overviewHow to use our weather pages